Location: Lake Almanor
(40.2485°N, 121.1442°W)
Time: 08:31:27
(UTC-08:00)

STARLINK-1117 - Pass Details

Date: 03 February 2020
Orbit: 348 x 350 km, 53.0° (Epoch: 18 February)

Event Time Altitude Azimuth Distance (km) Brightness Sun altitude
Rises 17:49:38 0° 307° (NW) 2,177 7.2 -5.2°
Reaches altitude 10° 17:51:39 10° 304° (NW) 1,331 6.2 -5.6°
Maximum altitude 17:54:36 65° 222° (SW) 396 3.2 -6.1°
Drops below altitude 10° 17:57:31 10° 140° (SE) 1,325 5.3 -6.7°
Sets 17:59:32 0° 137° (SE) 2,166 6.4 -7.0°
